Weather History for Henderson, NV

Change the Weather History Date:

Monday, February 4, 2013

  Actual Average (KLAS) Record (KLAS)
Temperature  
Mean Temperature 54 °F 51 °F  
Max Temperature 66 °F 60 °F 76 °F (1953)
Min Temperature 41 °F 41 °F 19 °F (1948)
Degree Days  
Heating Degree Days 12 14  
Month to date heating degree days 58  
Since 1 July heating degree days 1410  
Cooling Degree Days 0 0  
Month to date cooling degree days 0  
Year to date cooling degree days 0  
Growing Degree Days 4 (Base 50)    
Moisture  
Dew Point 27 °F    
Average Humidity 41    
Maximum Humidity 68    
Minimum Humidity 18    
Precipitation  
Precipitation 0.00 in 0.02 in 0.54 in (1958)
Month to date precipitation 0.08  
Year to date precipitation 0.62  
Snow  
Snow 0.00 in 0.00 in 4.00 in (1939)
Month to date snowfall 0.0  
Since 1 July snowfall 0.2  
Snow Depth -    
Sea Level Pressure  
Sea Level Pressure 30.09 in    
Wind  
Wind Speed 5 mph (South)    
Max Wind Speed 12 mph    
Max Gust Speed -    
Visibility 10 miles    
Events      
T = Trace of Precipitation, MM = Missing Value Source: NWS Daily Summary

Daily Weather History Graph

Daily Weather History Graph

Search for Another Location

Airport:

Trip Planner

Search our weather history database for the weather conditions in past years. The results will help you decide how hot, cold, wet, or windy it might be!

Date:

Astronomy

Feb. 04, 2013 Rise Set
Actual Time 6:38 AM PST 5:11 PM PST
Civil Twilight 6:11 AM PST 5:37 PM PST
Nautical Twilight 5:41 AM PST 6:08 PM PST
Astronomical Twilight 5:11 AM PST 6:38 PM PST
Moon 1:16 AM PST (2/4) 11:41 AM PST (2/4)
Length of Visible Light 11h 26m
Length of Day
10h 32m
Last Quarter, 36% of the Moon is Illuminated
Feb 4
Last Quarter
Feb 9
New
Feb 17
First Quarter
Feb 25
Full
Mar 4
Last Quarter

Hourly Weather History & Observations

Time (PST) Temp. Windchill Dew Point Humidity Pressure Visibility Wind Dir Wind Speed Gust Speed Precip Events Conditions
12:56 AM 46.9 °F - 32.9 °F 58% 30.10 in 10.0 mi SSE 6.9 mph - N/A   Clear
2:56 AM 43.9 °F 39.9 °F 32.0 °F 63% 30.09 in 10.0 mi SSE 6.9 mph - N/A   Clear
3:56 AM 43.0 °F 38.2 °F 32.9 °F 68% 30.09 in 10.0 mi SSW 8.1 mph - N/A   Clear
4:56 AM 41.9 °F 36.3 °F 32.0 °F 68% 30.10 in 10.0 mi SSE 9.2 mph - N/A   Clear
5:56 AM 41.0 °F 35.8 °F 31.1 °F 68% 30.12 in 10.0 mi SSE 8.1 mph - N/A   Clear
6:56 AM 41.0 °F 34.7 °F 31.1 °F 68% 30.13 in 10.0 mi SSE 10.4 mph - N/A   Clear
7:56 AM 50.9 °F - 27.1 °F 40% 30.14 in 10.0 mi Calm Calm - N/A   Clear
8:56 AM 54.9 °F - 27.1 °F 34% 30.15 in 10.0 mi Calm Calm - N/A   Clear
9:56 AM 56.8 °F - 26.1 °F 31% 30.17 in 10.0 mi Calm Calm - N/A   Clear
10:56 AM 61.0 °F - 26.1 °F 26% 30.15 in 10.0 mi Variable 5.8 mph - N/A   Clear
11:56 AM 61.0 °F - 25.2 °F 25% 30.12 in 10.0 mi Variable 3.5 mph - N/A   Clear
12:56 PM 63.0 °F - 24.1 °F 23% 30.08 in 10.0 mi Calm Calm - N/A   Clear
1:56 PM 66.9 °F - 23.0 °F 19% 30.05 in 10.0 mi Calm Calm - N/A   Clear
2:56 PM 66.9 °F - 23.0 °F 19% 30.04 in 10.0 mi Calm Calm - N/A   Clear
3:56 PM 66.2 °F - 21.2 °F 18% 30.04 in 10.0 mi Calm Calm - N/A   Clear
5:56 PM 56.8 °F - 28.0 °F 33% 30.05 in 10.0 mi Calm Calm - N/A   Clear
6:56 PM 53.6 °F - 26.6 °F 35% 30.04 in 10.0 mi Calm Calm - N/A   Clear
7:56 PM 50.9 °F - 27.1 °F 40% 30.06 in 10.0 mi South 8.1 mph - N/A   Clear
8:56 PM 50.9 °F - 25.2 °F 37% 30.05 in 10.0 mi South 11.5 mph - N/A   Clear
9:56 PM 48.9 °F - 25.2 °F 40% 30.05 in 10.0 mi South 5.8 mph - N/A   Clear
10:56 PM 48.9 °F - 25.2 °F 40% 30.05 in 10.0 mi SSW 10.4 mph - N/A   Clear
11:56 PM 45.9 °F 41.7 °F 25.2 °F 44% 30.06 in 10.0 mi South 8.1 mph - N/A   Clear